Home > Weather > Ashkelon > Past weeks

Flag for Israel Weather for the Past 2 Weeks in Ashkelon, Israel

Now
50 °F

Clear.


Feels Like: 50 °F
Forecast: 62 / 72 °F
Wind: 2 mph from North

Location: Ben Gurion International Airport

Current Time: Feb 14, 2016 at 4:48:35 AM

Latest Report: Feb 14, 2016 at 4:20 AM


Visibility: 6 mi

Pressure: 30.09 "Hg

Humidity: 88%

Dew point: 46 °F

Location of AshkelonLocation

Historic Weather in Ashkelon — Graph

°F

Ashkelon Temperature Yesterday

Maximum temperature yesterday: 72 °F (at 3:50 PM)
Minimum temperature yesterday: 45 °F (at 5:50 AM)
Average temperature yesterday: 59 °F

High & Low Weather Summary for the Past Weeks

 TemperatureHumidityPressure
High75 °F (Feb 4, 2:20 PM)94% (Feb 3, 6:50 AM)30.42 "Hg (Feb 3, 6:50 AM)
Low37 °F (Jan 31, 6:20 AM)21% (Feb 4, 2:20 PM)29.92 "Hg (Feb 5, 1:20 PM)
Average56 °F71%30.16 "Hg
* Reported Jan 30 3:20 AM — Feb 14 3:20 AM, Ashkelon, Weather by CustomWeather, © 2016

Note: Actual official high and low records may vary slightly from our data, if they occured in-between our weather recording intervals... More about our weather records

Advertising

Ashkelon Weather History for the Previous 24 Hours

 ConditionsComfort  
Time TempWeatherWind HumidityBarometerVisibility
3:20 AM
Sun, Feb 14
50 °FClear.2 mph88%30.09 "Hg6 mi
2:50 AM50 °FClear.1 mph94%30.09 "Hg6 mi
2:20 AM50 °FClear.1 mph94%30.09 "Hg5 mi
1:50 AM52 °FClear.2 mph88%30.09 "Hg5 mi
1:20 AM52 °FClear.1 mph94%30.09 "Hg6 mi
12:50 AM52 °FClear.1 mph94%30.09 "Hg6 mi
12:20 AM52 °FClear.1 mph94%30.09 "Hg6 mi
11:50 PM
Sat, Feb 13
54 °FClear.1 mph88%30.09 "Hg6 mi
11:20 PM55 °FClear.3 mph88%30.09 "Hg6 mi
10:50 PM55 °FClear.5 mph88%30.09 "Hg6 mi
10:20 PM55 °FClear.2 mph88%30.09 "Hg6 mi
9:50 PM55 °FClear.1 mph88%30.09 "Hg6 mi
9:20 PM55 °FClear.1 mph88%30.09 "Hg6 mi
8:50 PM61 °FClear.3 mph83%30.09 "Hg6 mi
8:20 PM61 °FClear.3 mph83%30.09 "Hg10 mi
7:50 PM61 °FClear.3 mph83%30.09 "Hg10 mi
7:20 PM59 °FClear.1 mph88%30.09 "Hg10 mi
6:50 PM61 °FClear.3 mph83%30.09 "Hg10 mi
6:20 PM63 °FClear.6 mph77%30.07 "Hg10 mi
5:50 PM63 °FClear.7 mph77%30.07 "Hg10 mi
5:20 PM63 °FSunny.8 mph77%30.07 "Hg10 mi
4:50 PM68 °FSunny.7 mph56%30.04 "Hg10 mi
4:20 PM70 °FSunny.3 mph50%30.04 "Hg10 mi
3:50 PM72 °FSunny.3 mph47%30.04 "Hg10 mi
3:20 PM70 °FSunny.2 mph50%30.04 "Hg10 mi
2:50 PM70 °FSunny.3 mph50%30.07 "Hg10 mi
2:20 PM68 °FSunny.5 mph60%30.07 "Hg10 mi
1:50 PM68 °FSunny.6 mph56%30.07 "Hg10 mi
1:20 PM68 °FSunny.7 mph49%30.07 "Hg10 mi
12:50 PM68 °FSunny.6 mph53%30.07 "Hg10 mi
12:20 PM68 °FSunny.8 mph49%30.07 "Hg10 mi
11:50 AM68 °FSunny.6 mph49%30.09 "Hg10 mi
11:20 AM68 °FSunny.5 mph43%30.09 "Hg10 mi
10:50 AM66 °FSunny.3 mph49%30.09 "Hg10 mi
10:20 AM64 °FSunny.3 mph56%30.12 "Hg10 mi
9:50 AM63 °FSunny.2 mph56%30.12 "Hg10 mi
9:20 AM61 °FSunny.1 mph55%30.12 "Hg10 mi
8:50 AM57 °FSunny.1 mph63%30.12 "Hg10 mi
8:20 AM54 °FSunny.1 mph72%30.12 "Hg10 mi
7:50 AM52 °FSunny.2 mph77%30.12 "Hg10 mi
7:20 AM48 °FSunny.3 mph82%30.12 "Hg10 mi
6:50 AM46 °FSunny.1 mph93%30.12 "Hg10 mi
6:20 AM45 °FClear.1 mph93%30.12 "Hg10 mi
5:50 AM45 °FClear.1 mph93%30.12 "Hg10 mi
5:20 AM46 °FClear.1 mph93%30.12 "Hg10 mi
4:20 AM48 °FClear.2 mph87%30.12 "Hg10 mi
Weather by CustomWeather, © 2016

See weather overviewHow to use our weather pages